Theta_e
325 326 326 327 328 330 330 330 330 330 331 331 331 332 334 336 335 334 335 335 336 334 333 331 329 331 329 328 327 328 329 331 331 330 332 332 332 333 333 334 332 333 335 334 333 336 335 331 332 331 332 333 331 330 330 330 330 329 328 327 328 327 325 325 325 325 322 321 322 322 323 326 329 330 328 328 328 327 328 329 328 328 328 328 330
323 322 324 325 327 327 327 327 328 326 327 328 329 330 331 332 332 332 334 335 335 335 333 333 332 330 330 330 329 329 330 329 329 328 331 333 332 330 332 332 333 332 333 332 332 331 333 332 332 332 331 331 332 332 329 332 329 328 327 327 327 328 325 326 325 324 320 320 317 317 319 322 326 327 328 329 329 329 327 329 328 329 329 329 331
319 321 322 323 325 325 325 325 326 326 326 326 328 329 329 329 330 330 331 331 331 334 334 333 332 333 332 330 332 331 331 330 331 332 332 330 330 330 331 332 332 332 330 332 333 333 333 332 333 333 332 333 332 331 330 330 330 329 328 328 325 324 325 326 325 326 320 320 319 318 314 315 319 322 326 327 328 329 329 327 329 329 330 331 331
317 318 319 322 322 323 323 323 324 325 326 325 326 327 328 328 328 329 329 330 330 332 332 331 332 332 333 333 332 333 331 332 331 332 331 331 330 329 331 332 332 330 332 332 333 333 332 333 333 333 333 333 332 331 330 330 329 328 328 328 328 322 323 325 328 326 323 320 315 317 314 314 311 316 320 325 329 329 329 328 328 328 329 331 330
316 317 318 320 319 320 321 322 323 323 323 323 324 325 326 326 327 327 327 329 328 329 329 330 331 331 332 333 332 330 331 331 329 328 329 330 331 330 331 331 331 330 331 332 332 332 333 334 334 334 333 333 333 332 331 331 330 330 329 327 325 326 323 323 323 326 324 325 322 315 313 313 315 316 318 321 326 326 328 329 327 328 328 328 329
316 316 317 318 318 320 320 321 321 322 322 323 324 325 325 325 326 326 326 326 326 326 327 328 328 329 329 329 328 327 326 328 327 327 328 328 328 330 331 331 331 331 331 330 330 333 333 334 334 334 333 332 330 330 331 330 329 328 329 327 326 326 325 323 321 325 326 326 325 324 321 316 315 318 317 313 319 326 326 328 328 327 328 327 329
316 317 317 316 317 318 319 319 320 320 321 324 323 324 324 325 325 325 325 325 326 326 326 327 326 327 328 328 329 327 327 328 332 332 331 330 330 329 330 331 331 331 331 330 331 332 333 334 335 335 334 330 331 329 328 329 328 330 330 329 327 327 326 324 324 323 325 325 326 326 325 322 322 319 316 315 314 318 324 324 326 328 327 327 328
314 315 316 316 317 317 317 319 320 320 321 322 322 323 322 324 324 324 324 324 324 325 325 326 325 326 326 327 327 326 327 327 329 331 333 334 329 328 329 329 329 331 330 329 328 329 330 331 333 333 333 331 332 330 328 329 330 330 330 330 329 328 327 326 325 325 323 323 325 325 325 326 324 323 321 318 316 313 317 322 324 325 326 326 327
315 314 314 314 314 316 317 318 319 320 320 320 321 321 321 323 323 322 322 322 323 325 325 325 326 325 324 324 323 325 326 326 327 329 329 330 330 332 331 330 330 330 329 328 329 330 331 330 331 333 333 331 331 330 330 330 330 330 330 329 329 328 327 327 325 324 324 323 323 323 324 324 324 324 323 321 317 315 315 318 320 322 323 325 325
314 314 314 314 315 316 316 317 317 318 320 321 320 320 320 320 320 320 320 321 322 322 323 324 325 325 323 322 321 321 323 324 325 324 326 327 326 326 328 330 332 331 331 330 328 330 330 330 330 331 332 331 331 330 330 329 330 330 330 329 330 328 328 327 326 325 325 325 326 324 321 322 322 323 321 320 320 319 316 317 319 319 319 323 325
312 312 313 314 315 315 315 315 316 317 318 318 318 318 318 318 317 316 316 317 318 319 320 321 322 323 322 322 321 320 321 322 321 321 322 322 322 323 324 326 328 329 331 331 330 330 329 330 330 330 331 332 331 330 330 329 329 328 329 329 329 329 328 327 326 326 326 326 325 325 323 322 321 320 321 322 321 319 318 317 318 320 321 320 322
311 312 312 312 313 313 314 313 314 315 317 316 316 317 317 316 314 313 313 314 315 317 317 317 318 318 319 320 320 319 319 319 319 317 318 319 320 321 323 324 324 326 327 327 328 331 331 330 331 330 329 328 328 328 329 330 330 331 330 329 329 329 329 328 327 326 325 324 324 326 325 326 325 324 324 324 322 321 320 319 318 320 320 321 323
310 310 311 311 311 311 312 312 313 314 315 315 315 315 315 315 313 312 312 313 314 315 316 316 316 315 315 316 317 318 316 316 316 315 317 317 319 319 318 318 320 322 322 323 325 328 329 328 330 331 329 328 328 328 328 329 328 328 328 328 328 328 328 327 327 326 325 324 324 325 325 325 325 327 326 324 323 324 322 319 320 321 318 318 321
309 310 311 311 311 312 312 312 313 313 314 314 314 314 314 312 311 311 311 312 313 314 314 315 315 315 315 314 316 317 315 314 313 313 314 315 316 316 316 316 317 318 319 320 322 324 325 327 329 330 330 330 329 329 329 329 329 328 328 327 327 328 328 327 326 326 327 327 326 324 324 325 326 327 327 326 323 322 319 319 319 319 319 318 318
309 310 310 311 311 312 312 312 312 313 313 314 314 313 313 311 310 310 310 311 312 312 313 313 313 313 313 313 314 315 314 313 313 314 312 312 313 314 314 315 314 315 316 317 319 319 320 322 323 325 327 329 329 328 328 327 327 327 327 327 328 329 329 328 327 327 327 326 325 325 325 326 326 326 326 326 326 324 322 321 319 317 316 317 316
307 308 309 309 310 311 311 311 312 311 312 313 312 310 310 310 309 309 309 310 312 312 312 312 312 312 311 311 312 313 313 312 312 312 312 312 311 311 312 312 313 313 314 315 315 315 315 317 319 320 323 322 322 324 326 326 324 323 323 325 325 328 327 327 327 327 326 326 326 326 326 325 326 326 326 326 326 326 325 324 322 321 317 313 315
306 307 308 310 310 310 311 310 310 311 310 310 310 309 308 308 308 308 309 311 312 312 311 311 311 310 310 310 310 310 310 309 309 309 309 311 311 311 310 310 311 311 311 312 311 311 312 314 315 318 312 311 312 313 314 320 324 324 324 325 326 327 327 326 327 326 326 326 325 325 325 325 326 327 327 326 326 326 327 326 324 322 321 317 314
308 309 310 311 311 311 310 310 310 309 308 308 308 308 308 308 308 308 309 309 310 311 311 310 310 310 310 309 310 309 309 309 308 308 308 309 310 309 309 308 308 309 309 308 308 308 309 312 313 309 307 308 308 308 309 310 312 317 321 325 326 327 326 327 327 327 327 327 326 326 326 325 327 327 327 327 326 326 326 326 325 324 323 319 318
307 307 308 309 309 309 308 308 309 307 307 307 308 308 308 307 308 308 308 309 310 311 310 310 309 309 309 309 308 308 308 308 308 308 307 308 308 307 306 306 306 307 306 306 306 307 307 308 310 306 306 306 305 306 306 305 306 308 310 314 318 321 323 325 326 326 326 326 325 325 325 325 326 325 325 326 327 327 326 326 325 325 324 323 320
307 307 307 306 306 307 307 307 306 305 304 305 306 307 307 307 307 308 309 309 309 308 309 307 308 308 308 308 308 308 308 308 307 306 306 307 307 306 305 305 304 305 305 306 305 305 305 307 307 304 302 303 302 303 303 302 303 303 304 306 308 310 312 316 323 326 327 326 326 325 325 325 326 326 325 326 326 327 326 326 326 325 325 324 322
306 306 305 304 304 304 304 304 303 303 304 304 304 305 305 306 306 306 307 308 307 307 307 307 307 306 307 306 306 306 306 307 306 306 305 306 306 306 305 304 304 303 304 304 304 304 304 305 306 304 301 300 300 300 300 300 300 299 300 301 303 306 307 310 314 320 325 326 326 325 326 327 327 326 325 326 326 327 327 326 326 325 324 324 322
305 305 304 303 302 302 302 302 302 302 302 302 303 304 304 304 305 306 306 307 306 306 306 306 306 306 305 305 305 305 306 306 305 305 305 305 305 305 304 304 303 303 303 303 303 303 303 303 304 303 300 300 300 299 299 299 298 298 298 299 300 300 302 305 309 313 318 324 326 325 325 326 327 325 325 325 326 326 326 325 325 325 324 324 324
303 303 303 302 300 300 301 301 300 300 300 300 301 302 303 303 304 304 305 305 306 306 306 306 305 305 304 304 305 305 305 305 305 305 305 306 306 305 305 303 303 302 303 303 302 302 302 302 302 303 301 300 299 299 298 298 297 297 297 297 298 298 299 301 304 308 312 316 321 324 325 325 326 325 325 325 326 326 325 324 323 324 324 324 325
302 302 302 301 300 300 300 300 300 300 299 299 300 301 302 303 303 304 304 305 305 306 306 305 304 304 304 303 303 303 303 303 304 305 305 306 306 306 306 303 303 302 302 302 302 301 301 301 301 301 301 299 298 298 298 297 296 296 296 296 297 297 298 299 300 304 308 311 316 320 323 325 326 325 325 325 326 326 325 325 324 324 324 324 324
301 301 300 300 300 300 300 300 299 299 299 299 300 300 300 301 302 303 303 304 305 305 305 304 303 303 303 302 302 302 302 302 302 303 303 304 305 305 307 306 304 303 302 302 302 302 300 300 300 300 299 298 297 297 297 296 296 296 296 296 296 297 297 297 298 300 306 308 312 317 321 324 325 324 324 324 325 325 326 325 325 325 324 325 324
300 299 299 299 299 299 299 298 299 299 299 299 299 300 300 301 301 302 303 303 303 304 303 303 303 302 302 301 301 301 301 301 302 301 302 303 303 303 303 304 305 304 303 302 301 301 301 299 300 300 299 298 297 297 296 295 295 295 295 296 296 296 297 298 298 299 301 304 309 315 320 323 324 323 323 323 323 323 324 324 324 324 324 324 324
299 298 298 298 298 298 298 298 298 298 298 299 299 300 300 300 301 302 302 303 302 302 302 302 302 301 301 301 301 301 300 300 300 301 301 302 301 301 302 302 303 302 302 302 301 300 300 299 300 300 299 298 297 296 295 295 295 295 295 295 296 296 297 298 299 300 301 303 307 313 318 322 323 324 323 323 323 323 322 323 323 324 325 324 323
298 298 297 297 297 297 297 297 297 298 298 298 299 299 300 300 300 301 301 301 302 301 301 301 301 300 300 300 300 300 300 301 300 300 300 300 301 301 301 301 302 300 300 300 300 300 299 299 299 299 299 298 296 295 295 295 294 295 295 295 296 297 297 299 300 301 303 305 309 313 317 320 323 324 324 324 324 323 323 322 323 323 323 322 321
297 297 296 296 296 297 297 297 297 297 297 298 298 298 299 299 299 299 300 299 300 300 299 299 299 299 299 299 300 300 300 300 300 299 299 299 300 300 300 300 300 300 301 299 299 299 298 298 297 297 297 297 296 295 295 294 294 294 295 295 296 297 298 299 301 303 305 307 311 314 316 319 321 320 316 317 318 319 323 321 322 322 322 322 321
297 296 296 296 296 296 296 297 296 296 296 297 297 298 298 298 298 299 299 299 299 299 298 298 298 298 299 298 298 298 298 298 298 298 298 298 299 299 299 298 299 299 298 299 298 298 298 297 296 296 297 297 295 295 297 295 295 294 294 295 296 297 298 298 300 301 304 305 306 306 308 309 309 313 313 309 306 307 312 321 323 323 322 322 321
295 295 295 295 296 296 297 296 295 296 296 297 297 297 297 298 298 298 298 298 299 298 298 297 297 298 298 297 296 296 296 296 296 297 297 298 298 298 298 298 298 298 298 298 297 297 297 297 296 296 296 296 295 295 294 292 292 293 295 295 296 296 297 298 299 299 300 301 301 303 304 306 306 307 309 309 306 304 304 304 309 314 318 322 321
295 295 295 295 296 296 296 295 296 296 297 297 297 297 297 297 298 298 298 298 297 297 297 297 297 297 297 296 295 294 294 294 295 295 296 296 297 297 297 297 297 297 297 297 296 296 296 296 296 295 295 295 295 295 292 292 292 292 294 296 296 296 297 297 298 298 299 298 299 300 301 303 302 303 304 308 310 308 303 302 302 302 303 306 310
295 295 295 295 295 295 296 296 296 297 297 297 297 297 296 297 297 297 298 297 296 296 296 296 296 296 296 295 294 294 293 293 293 294 295 295 295 295 296 296 296 297 296 296 295 295 295 296 295 294 294 294 294 294 292 292 292 292 292 294 296 296 296 296 296 297 297 297 298 299 299 300 299 302 303 301 299 299 303 304 302 303 303 302 300
295 295 295 295 295 295 296 296 296 297 298 298 298 297 297 297 298 297 296 296 295 295 294 295 295 295 295 295 294 293 293 292 293 293 294 294 294 294 294 295 296 295 295 295 294 294 295 295 295 294 294 294 294 294 292 292 292 291 291 293 295 295 296 296 296 296 296 296 297 297 297 297 296 297 298 297 295 296 298 304 312 310 311 310 303
294 294 294 294 294 294 294 295 296 297 296 297 296 296 296 296 296 296 296 295 294 294 294 294 294 294 294 294 294 293 292 292 292 292 292 292 293 293 293 294 294 294 293 293 293 293 294 294 294 294 293 293 294 293 292 292 291 291 292 293 294 295 295 295 295 295 296 295 295 297 297 296 295 295 297 294 293 293 295 299 308 316 314 314 316
294 294 294 294 294 294 295 295 297 297 297 296 295 296 296 295 295 295 294 294 294 293 292 292 293 293 294 293 293 292 291 291 292 292 292 291 291 291 291 292 293 292 293 293 293 293 293 292 293 293 293 292 293 293 291 291 291 291 292 294 293 293 294 295 294 295 294 295 295 296 296 294 293 293 295 291 292 293 295 301 307 315 317 316 316
294 295 295 295 295 295 295 295 295 296 296 295 295 295 294 294 294 294 294 293 293 292 292 293 293 293 294 293 293 292 291 291 291 291 290 290 290 291 291 292 290 291 291 292 292 292 292 292 293 293 292 291 292 293 291 291 291 291 292 292 293 292 293 293 294 294 294 294 294 296 296 294 292 292 292 290 290 292 296 301 306 313 318 317 315
294 294 295 295 294 295 296 296 295 295 294 294 294 294 294 293 292 292 292 292 292 292 292 292 292 292 293 293 292 292 291 291 290 290 290 290 290 290 291 292 290 290 290 290 292 291 291 291 291 291 293 291 291 292 292 291 291 291 293 291 292 291 291 293 293 293 293 293 294 298 298 293 292 292 291 290 290 292 294 297 302 307 315 316 315
295 295 294 294 295 295 296 295 295 294 294 294 294 294 294 293 292 291 291 291 291 291 292 292 292 292 292 292 292 292 291 290 290 289 290 289 289 290 291 290 290 289 290 289 293 290 290 290 290 291 295 291 290 292 292 291 291 291 292 292 291 291 290 291 292 292 293 292 292 294 295 294 292 291 290 290 290 291 293 295 298 302 308 314 316
295 295 295 296 297 296 294 294 294 294 294 294 294 295 295 293 292 291 291 291 291 292 291 291 292 293 293 293 293 293 291 290 290 289 290 290 290 289 289 289 289 289 288 288 289 289 289 289 289 289 290 290 290 290 292 291 291 291 291 292 292 291 290 290 291 292 291 291 291 291 292 291 290 289 289 290 290 290 292 294 296 297 300 307 315
294 295 297 295 295 294 294 293 294 294 295 294 294 293 293 293 291 291 290 291 292 291 292 292 292 293 293 292 291 292 291 290 290 290 291 290 289 289 289 288 288 288 287 288 288 288 288 288 289 289 289 289 291 291 291 291 291 291 290 291 291 291 290 290 290 290 290 290 290 290 291 292 290 289 290 290 290 290 291 294 293 292 294 297 296
295 295 294 293 293 293 293 293 294 295 295 294 294 293 292 291 291 290 290 291 292 291 291 291 292 293 292 292 291 291 293 293 292 291 290 290 289 290 289 288 287 287 287 287 287 288 287 287 288 289 289 289 291 293 290 291 291 291 290 291 290 290 290 290 290 290 290 290 290 290 290 291 289 289 289 290 290 290 290 293 291 290 291 291 298
293 293 294 294 293 293 293 293 294 295 295 294 293 292 291 291 291 290 291 292 292 292 292 292 292 293 293 291 291 292 292 294 292 291 290 289 288 288 288 288 286 286 286 287 287 287 287 287 287 288 288 288 289 290 291 290 291 290 290 290 290 290 290 291 289 289 289 289 290 290 291 291 289 289 289 289 290 289 291 290 290 290 291 292 301
295 295 294 295 293 293 293 293 293 293 293 293 294 293 292 290 291 292 291 292 292 291 291 291 291 291 292 292 292 292 291 290 292 291 290 289 288 288 288 288 286 286 286 286 287 287 287 286 286 287 288 288 288 288 290 291 290 290 290 290 289 290 290 290 290 289 289 290 289 289 290 289 289 289 289 289 289 289 289 289 290 290 291 293 298
294 294 295 294 293 292 293 292 292 293 292 292 292 293 291 291 292 293 292 291 291 291 291 291 290 291 291 292 291 290 290 289 289 290 290 289 287 286 287 287 287 286 286 286 286 287 286 286 286 286 286 287 288 288 289 290 291 290 290 289 289 290 290 290 290 290 290 290 289 289 289 289 289 289 289 289 290 289 289 289 290 291 293 293 293
295 294 294 293 292 292 292 292 292 292 293 293 292 293 292 291 292 292 291 291 291 292 291 290 290 290 291 292 291 291 290 290 290 290 289 288 287 287 287 286 285 285 285 286 286 287 286 286 286 286 286 287 288 288 289 290 291 291 290 289 289 290 291 291 291 290 290 289 289 289 289 289 290 290 290 289 289 290 289 289 289 291 292 292 292
293 293 292 292 291 292 292 292 291 292 292 293 292 292 292 293 293 293 293 292 292 291 292 290 290 290 289 290 290 290 290 290 289 290 290 289 287 286 286 286 285 284 285 285 286 286 286 286 286 286 286 287 287 288 289 289 289 289 288 289 288 290 291 291 290 290 290 289 290 290 289 289 289 289 289 289 289 290 289 289 289 290 290 291 292
292 292 292 291 292 291 291 292 292 291 292 292 292 292 293 293 293 293 292 292 292 291 290 289 289 289 289 289 290 290 290 288 288 288 288 286 286 286 286 286 285 285 284 285 286 286 285 285 284 285 286 286 287 288 288 288 289 289 289 290 289 290 289 288 288 289 289 289 289 289 289 290 289 289 289 289 289 289 289 288 288 289 289 289 291
290 291 292 292 292 292 291 292 292 291 292 291 291 291 292 292 291 291 292 291 291 290 290 289 289 289 289 288 289 290 290 289 287 287 286 286 286 287 286 286 285 284 285 285 286 286 286 284 284 285 285 285 286 287 288 289 289 289 289 290 290 289 289 289 290 289 290 288 288 288 288 288 288 287 287 287 287 287 287 288 288 288 288 288 288
291 292 292 292 292 292 291 291 291 292 292 292 291 292 292 293 292 292 292 292 290 290 289 289 289 289 289 289 289 289 290 289 287 287 286 286 287 290 287 285 286 290 289 288 288 285 285 285 284 286 286 284 285 287 289 289 289 289 289 289 290 289 289 289 290 289 289 287 286 286 286 286 287 287 286 286 286 286 286 286 287 287 287 287 287
292 291 291 291 291 292 291 291 291 292 292 292 291 291 292 292 293 292 292 291 290 290 288 288 289 289 288 288 287 287 287 288 288 287 287 286 286 286 288 289 289 290 289 288 287 288 288 288 286 286 288 289 289 289 289 289 289 289 289 289 289 289 290 289 289 288 287 286 286 285 285 286 286 287 286 286 286 286 286 286 286 287 287 286 286
Wind_Speed
8 11 9 9 8 7 7 8 8 9 7 7 8 8 8 6 7 7 5 4 4 3 1 3 3 1 4 5 4 2 4 4 3 4 4 4 3 3 4 4 3 3 3 2 2 3 4 3 3 3 3 3 3 5 4 4 3 3 3 3 4 4 2 1 3 3 3 1 1 2 3 2 2 3 4 5 5 5 4 6 7 6 7 7 7
10 10 9 9 7 7 9 8 9 11 7 8 9 7 7 9 8 7 6 7 6 4 2 1 1 5 2 5 6 4 2 3 4 1 3 4 3 3 3 3 4 3 3 2 2 3 4 4 4 4 4 4 4 4 3 4 3 3 3 3 3 5 4 4 3 3 1 4 3 2 2 2 4 4 5 5 6 6 5 6 7 8 8 8 7
11 8 9 7 7 8 10 8 9 7 5 8 6 8 9 8 7 6 7 7 6 5 5 4 2 0 4 3 4 5 5 4 4 5 0 1 3 4 3 4 3 3 3 3 3 4 4 4 5 4 4 4 4 5 4 5 4 4 4 5 5 2 1 0 4 6 4 0 2 1 3 1 2 3 5 6 6 6 5 6 8 9 11 9 8
10 7 9 5 7 8 9 9 6 6 5 8 7 7 6 6 6 7 7 6 6 6 5 4 3 3 3 5 5 4 5 6 6 5 7 7 5 2 4 3 1 2 4 5 5 4 4 6 6 5 6 4 4 5 5 5 4 4 4 6 5 3 3 5 6 8 3 5 1 6 2 2 4 6 7 5 7 7 7 7 7 9 10 9 7
9 9 8 6 10 8 8 7 6 7 7 7 6 6 5 6 6 7 7 6 5 6 6 4 5 7 5 6 5 3 3 5 5 6 4 4 6 7 6 2 2 1 2 3 3 5 5 6 6 6 5 5 4 5 6 6 5 5 5 4 3 6 6 4 3 4 4 5 6 1 2 2 5 2 1 6 5 5 8 8 7 9 9 9 8
9 9 8 8 9 6 7 7 8 7 7 5 3 7 5 6 7 6 5 5 6 7 5 6 6 6 7 7 7 5 3 1 5 7 7 6 5 5 8 6 4 4 4 3 2 3 5 5 5 6 5 3 2 4 5 6 6 5 4 3 4 4 7 5 6 5 7 9 7 9 6 5 2 2 2 6 1 6 5 7 8 8 8 8 9
7 8 7 9 8 8 7 7 7 6 5 4 5 6 5 5 6 5 5 5 6 5 5 6 7 6 7 6 5 5 4 5 2 0 4 7 6 6 6 7 6 7 7 4 3 4 4 5 5 5 5 2 1 2 4 6 5 5 4 5 7 6 7 8 9 7 3 6 9 9 6 2 2 3 6 1 4 2 4 6 7 7 7 7 8
8 8 7 8 8 8 7 6 6 5 4 5 5 5 6 6 4 4 3 5 5 4 7 7 6 6 6 7 6 6 5 4 5 4 2 1 4 8 6 5 5 5 6 5 3 3 4 5 4 4 5 4 4 5 6 8 7 5 8 6 4 7 8 9 9 7 8 6 6 9 9 7 3 3 4 5 4 2 3 2 3 5 6 6 8
8 8 8 8 9 7 6 6 5 4 4 4 3 4 5 5 5 5 7 7 6 6 7 7 6 6 6 5 6 4 4 4 4 5 5 5 4 1 5 7 8 8 5 5 6 6 5 5 5 5 3 3 3 5 7 7 7 7 7 7 8 8 7 7 6 8 8 9 6 8 9 9 7 6 4 1 4 5 6 6 6 3 3 5 6
7 9 9 8 8 8 7 6 5 3 3 4 6 6 6 5 6 6 6 4 4 6 6 7 6 6 7 7 7 5 4 3 3 6 6 5 6 5 3 3 3 7 10 5 3 6 7 6 6 6 5 5 6 6 6 8 7 7 8 6 6 9 7 6 9 9 8 9 9 6 5 5 8 7 7 6 5 4 7 6 7 8 9 8 8
7 8 8 8 7 8 7 7 4 4 4 6 7 6 5 5 6 7 6 5 5 6 6 6 6 6 5 6 7 7 7 7 7 7 6 6 7 6 6 5 5 6 6 7 7 6 7 7 6 6 5 4 3 4 6 6 7 8 9 9 9 9 7 7 8 10 9 9 10 8 8 10 11 10 10 9 9 7 6 7 4 7 10 9 8
7 7 8 8 7 6 7 6 5 6 6 7 6 5 5 5 6 7 6 6 6 6 6 7 7 7 6 6 7 8 8 7 8 8 8 7 7 6 5 5 6 5 5 6 7 8 7 7 6 5 5 4 5 5 5 6 7 7 7 5 6 8 8 7 7 10 10 7 9 8 8 9 9 10 10 9 10 11 9 9 8 4 4 7 3
7 7 6 5 5 6 7 8 8 7 4 4 4 4 5 6 6 6 6 6 7 6 7 7 7 7 7 8 6 5 6 6 6 7 6 6 6 6 6 6 6 6 6 7 7 9 7 8 9 8 6 5 6 5 6 6 6 7 8 9 9 9 8 7 7 7 7 7 6 8 9 10 11 10 8 8 8 9 10 10 8 5 8 5 6
6 6 5 5 5 5 6 8 6 4 4 5 5 6 5 5 5 5 5 5 5 6 7 8 9 8 8 7 6 5 5 5 5 6 6 5 5 6 6 6 6 7 7 8 8 9 8 8 8 9 8 6 6 6 6 6 6 7 7 8 9 8 7 8 9 10 10 10 8 8 8 9 10 9 10 9 9 8 7 11 9 4 4 6 3
5 6 6 7 6 5 6 8 5 3 4 4 4 5 5 5 5 6 6 5 7 7 7 9 8 8 7 6 6 6 6 6 6 5 6 6 6 6 7 7 7 7 8 8 9 9 9 9 10 10 10 9 8 6 5 6 6 6 6 7 7 7 7 7 7 8 9 8 7 7 9 9 10 9 8 9 8 10 10 9 9 9 6 6 6
3 5 5 6 5 6 6 4 3 3 4 5 5 4 4 4 4 5 5 5 7 8 7 7 6 6 6 7 7 7 7 6 6 6 6 6 6 7 8 8 8 8 8 9 10 10 10 10 9 10 11 13 13 12 10 7 6 6 6 6 8 6 7 9 9 9 9 9 9 8 8 9 8 9 9 11 10 10 9 8 9 11 10 9 5
4 4 4 4 5 5 4 4 5 6 6 5 4 4 4 5 5 6 6 6 7 7 7 5 6 7 7 7 7 7 7 7 7 7 7 6 5 7 7 7 7 8 8 8 9 9 9 10 9 10 13 11 11 13 13 12 10 7 6 7 7 7 7 8 8 8 8 8 8 10 10 9 9 10 10 12 12 11 11 11 9 12 11 11 8
4 4 3 4 4 5 6 7 7 6 6 6 6 5 5 5 6 6 6 8 8 8 7 6 7 8 8 8 8 6 6 7 7 7 7 6 8 8 8 8 9 8 8 7 7 9 9 11 8 12 10 11 11 12 12 12 13 11 11 10 8 8 8 7 7 7 8 7 8 8 9 9 9 9 9 9 10 11 11 11 11 11 9 11 10
5 5 5 5 6 7 7 8 7 6 5 5 5 6 7 6 6 7 7 7 7 7 6 7 7 6 6 7 7 7 7 8 7 7 7 8 9 9 9 8 8 8 8 8 8 9 9 9 9 11 9 10 10 11 11 12 12 10 11 10 11 11 10 9 8 8 8 8 9 10 9 9 9 9 10 10 10 11 11 10 10 10 11 12 11
5 6 7 7 7 7 7 8 8 7 6 5 6 6 7 7 8 7 7 8 8 8 7 7 7 7 7 7 7 7 7 7 7 6 7 8 9 9 8 8 9 8 9 10 10 11 11 11 10 11 12 10 11 11 11 11 10 10 9 10 11 11 11 11 10 8 7 8 9 9 10 9 9 9 10 10 10 11 11 11 12 12 12 12 11
6 7 7 7 7 8 7 6 6 6 5 6 6 5 4 6 7 7 8 7 7 6 6 6 6 6 7 7 7 6 7 6 6 6 6 6 7 7 7 6 7 9 9 10 11 11 11 11 10 11 11 11 12 11 11 10 10 11 10 10 11 11 10 11 11 12 10 9 9 10 10 10 9 9 8 8 10 11 11 12 12 11 11 11 12
7 8 7 7 7 7 7 6 5 6 6 6 5 5 6 6 7 7 6 5 6 6 6 5 5 6 7 7 6 5 5 5 5 5 5 5 5 6 5 6 7 8 9 10 11 10 10 11 10 10 11 12 12 12 12 11 12 13 13 9 10 11 11 11 11 10 12 10 8 10 10 9 8 9 9 10 9 10 10 9 10 12 12 11 11
7 7 7 6 5 5 7 7 6 5 5 5 5 5 5 6 7 6 6 5 5 5 5 5 6 7 8 8 8 7 6 5 6 5 5 4 4 5 5 6 7 7 7 8 9 9 11 11 11 11 11 12 13 12 11 12 12 12 13 12 11 12 12 12 12 11 10 11 12 10 10 9 8 9 10 11 12 12 11 12 12 10 11 11 11
9 7 7 6 5 5 7 7 7 6 6 5 4 4 5 6 6 6 6 5 6 5 5 6 7 8 8 8 8 8 9 8 8 8 9 8 6 4 5 6 6 6 7 7 8 9 10 10 11 12 12 13 14 14 13 12 13 12 13 13 13 13 12 12 12 13 11 11 11 12 11 9 9 10 9 9 9 11 11 12 14 13 12 13 12
10 8 8 7 7 7 6 5 5 5 5 5 5 5 5 5 5 5 5 5 5 4 5 5 7 7 7 7 8 8 9 9 9 8 9 9 9 8 7 6 6 6 6 7 8 8 9 10 10 12 12 13 13 13 14 13 13 13 13 13 13 12 12 12 13 13 14 12 12 11 12 10 9 9 9 10 9 12 13 15 15 13 12 10 10
9 7 8 7 5 5 5 5 5 4 5 5 5 5 5 6 6 4 5 5 4 4 4 5 5 7 6 7 6 6 8 8 7 7 8 9 9 9 9 8 8 8 7 7 8 8 9 9 10 11 12 12 11 11 12 13 14 14 14 13 12 12 12 12 12 12 13 13 12 13 12 11 9 9 8 9 10 11 10 9 10 9 9 10 11
9 7 6 5 6 6 5 4 4 4 4 5 6 6 6 7 8 7 6 5 5 5 5 6 5 5 6 6 6 6 6 5 6 6 6 7 8 8 9 9 9 9 9 8 8 8 8 8 8 9 11 11 11 11 12 13 14 15 16 15 14 13 12 11 10 11 12 12 13 13 13 12 10 9 9 9 10 9 8 8 8 10 13 14 13
7 7 7 6 5 5 5 5 5 4 4 5 5 6 6 7 8 8 7 7 6 7 7 7 6 6 6 6 5 5 5 6 5 4 4 5 5 7 8 7 7 8 8 8 8 8 7 7 8 8 9 9 11 11 12 14 13 14 15 15 15 14 12 13 13 12 10 11 12 12 12 12 11 10 9 9 8 9 8 8 8 8 6 6 9
8 6 5 5 5 6 5 4 4 4 5 6 6 6 6 6 7 6 6 6 6 7 7 6 6 7 8 7 6 5 4 5 5 5 5 5 4 5 5 6 6 7 7 7 7 8 8 8 9 9 9 9 10 11 12 14 15 14 13 13 14 14 13 13 13 14 12 10 10 13 13 13 15 17 18 15 10 10 9 8 9 7 9 8 6
8 6 4 4 4 5 4 4 4 5 5 6 6 6 6 7 6 6 7 6 8 8 8 8 8 8 7 8 8 7 6 5 5 6 6 6 5 4 5 5 6 7 7 7 7 7 8 9 9 10 9 9 10 10 19 25 22 16 13 10 12 12 12 13 14 14 13 14 14 13 14 24 25 21 17 16 14 14 15 13 9 8 9 10 10
7 5 4 5 6 7 7 5 4 4 5 6 5 5 5 6 6 7 7 6 7 8 8 9 10 9 8 7 7 7 7 8 7 7 7 6 6 5 4 5 6 7 7 7 7 8 8 8 9 9 10 10 9 13 24 21 22 26 17 11 12 13 13 13 13 13 12 14 14 13 12 17 19 20 20 21 16 15 15 17 18 17 13 11 10
7 6 6 6 6 8 6 5 4 5 5 6 6 5 5 6 6 6 6 6 7 8 9 9 8 8 8 8 7 7 8 8 8 8 8 8 7 6 5 5 6 7 7 6 7 7 7 7 7 8 9 9 9 18 20 22 22 24 22 14 11 11 12 13 12 13 11 11 13 13 13 10 12 17 16 16 19 16 14 17 18 18 17 16 14
8 7 6 6 7 6 6 5 4 5 6 5 6 6 6 6 7 6 6 7 7 7 7 7 7 7 7 7 7 8 8 8 8 8 8 9 9 7 6 6 8 7 6 7 7 7 7 7 7 8 9 9 9 18 21 22 22 23 23 18 11 12 12 13 13 13 12 12 12 13 12 10 12 22 16 14 14 16 20 17 18 18 19 18 17
7 7 7 6 6 5 5 5 5 4 5 5 5 6 5 6 8 7 8 6 6 5 6 6 6 6 6 6 7 8 9 8 8 8 8 9 9 9 7 5 4 6 6 6 6 7 7 8 8 8 8 8 9 17 21 22 22 23 21 16 11 12 12 12 14 13 11 12 11 12 12 13 13 14 12 16 16 15 14 15 10 10 11 14 16
9 7 7 6 6 6 5 5 5 5 5 6 5 5 5 6 8 8 6 6 5 5 5 5 6 6 6 6 7 8 8 8 8 8 8 9 8 7 8 6 5 5 5 6 6 6 7 7 7 8 7 9 9 19 20 22 22 23 21 14 11 11 12 12 12 12 13 12 13 12 13 10 13 13 11 18 17 15 14 13 13 10 9 10 10
8 8 7 7 7 8 7 6 4 6 5 6 5 5 7 5 6 7 6 5 5 5 4 4 5 5 5 5 6 6 6 6 7 7 8 8 7 7 7 5 5 6 5 5 6 6 7 7 7 8 8 10 10 18 20 21 22 22 20 11 11 12 11 11 12 12 14 13 13 13 13 13 15 14 18 24 20 15 13 13 13 11 9 7 8
7 8 8 7 7 7 6 5 6 6 6 5 5 6 6 6 6 6 6 5 5 5 5 5 5 5 5 5 5 5 5 5 5 6 6 6 6 6 6 5 6 6 7 7 6 7 7 7 8 8 9 9 9 15 20 20 21 23 16 11 11 11 11 11 12 12 12 13 13 15 15 13 15 15 22 24 22 20 12 12 13 12 9 7 8
7 5 5 5 5 5 6 8 8 6 5 4 5 6 7 6 5 5 6 5 5 4 4 5 5 5 5 5 5 5 5 5 5 5 5 5 5 5 6 5 6 7 8 7 6 6 7 7 8 9 9 9 9 14 19 19 20 21 17 11 11 11 12 11 12 12 12 12 15 25 21 15 15 16 24 23 23 18 13 13 12 13 11 7 7
7 8 8 7 6 7 7 7 8 7 5 5 5 7 7 5 4 4 5 5 5 4 4 5 5 5 5 5 4 5 5 5 5 4 4 4 4 5 4 5 6 6 6 6 6 6 7 7 7 7 13 11 9 11 17 19 20 19 17 11 11 10 12 13 12 12 12 11 12 15 22 20 20 21 24 22 22 19 13 11 12 12 12 8 8
6 6 7 8 8 8 8 8 7 5 5 5 5 6 6 5 4 4 5 5 5 5 4 4 5 6 5 5 4 5 4 5 5 5 4 4 3 3 5 5 5 6 6 6 6 6 7 8 7 7 7 8 10 10 13 19 19 19 19 13 10 11 13 14 13 13 13 12 12 12 14 19 24 24 23 22 22 21 15 12 10 10 11 11 6
7 7 7 8 8 9 8 7 6 6 5 5 5 6 5 5 5 5 5 4 4 4 4 4 5 6 5 4 4 5 5 4 4 5 4 4 4 4 4 5 5 6 6 7 7 6 6 7 8 7 7 8 9 10 12 18 19 19 20 16 10 11 11 11 11 13 11 12 12 12 12 19 24 24 23 22 22 22 18 12 10 10 11 13 13
6 8 8 8 8 7 7 6 6 7 6 5 5 6 5 5 6 5 4 4 5 4 4 4 5 5 5 4 4 4 4 5 4 5 6 6 5 5 4 4 6 5 6 7 6 7 7 7 7 8 9 9 10 13 11 15 19 19 18 19 12 11 12 10 11 11 12 11 12 12 12 19 23 23 22 22 22 21 21 12 15 18 19 14 8
8 9 8 10 8 8 8 6 6 6 5 4 6 6 5 5 6 5 5 6 5 4 4 4 5 5 5 4 4 4 4 4 5 5 6 5 4 5 4 4 4 5 5 7 7 7 8 8 8 9 9 9 10 10 15 13 17 18 18 17 17 13 18 11 10 11 12 11 11 12 13 22 22 22 22 22 21 24 17 18 23 24 23 23 9
9 10 10 10 8 7 7 5 5 5 4 4 6 5 5 5 4 2 5 5 5 5 5 4 3 4 4 4 4 4 4 4 5 5 5 5 4 4 4 5 5 5 6 8 8 8 8 10 10 10 9 9 9 9 12 16 15 17 16 16 16 17 18 12 10 9 10 11 11 13 15 22 21 22 22 21 21 22 19 23 24 25 24 20 12
10 11 10 10 10 9 7 5 4 4 4 4 5 6 4 3 1 1 5 5 5 5 6 6 4 3 4 3 4 4 4 4 4 5 5 4 4 3 5 4 5 6 6 7 7 7 8 8 9 10 9 9 9 9 9 13 17 16 15 14 14 16 17 18 12 10 10 11 15 19 20 20 19 21 21 19 16 20 24 23 24 23 21 14 14
9 9 10 9 8 8 8 6 4 4 4 5 5 7 6 3 2 3 3 4 5 6 6 5 4 3 2 3 5 4 4 4 4 4 4 3 3 3 5 5 6 6 5 6 7 7 7 8 9 9 9 9 9 9 10 10 11 11 10 13 14 13 15 16 15 12 15 17 17 18 19 19 16 17 14 13 13 16 20 23 23 21 14 14 14
11 10 9 9 8 8 7 6 5 2 4 5 6 5 5 5 6 5 5 5 5 5 5 5 5 4 2 1 5 4 4 4 4 4 4 4 3 3 3 4 4 5 5 6 6 7 7 8 9 9 8 9 9 9 10 10 10 9 8 8 8 9 11 12 10 10 11 11 13 14 13 15 14 18 18 17 17 17 16 16 13 13 13 13 13
10 9 10 8 8 8 7 6 5 4 4 5 5 5 5 6 5 5 5 6 5 5 6 5 4 4 3 1 1 5 5 5 3 4 5 4 3 2 4 3 3 4 6 6 6 6 6 6 7 8 8 9 10 10 10 10 10 9 9 8 7 7 8 8 9 10 9 9 10 12 14 12 13 13 14 13 13 13 13 14 14 13 12 13 14
9 8 10 9 7 7 7 6 5 5 5 4 4 3 4 5 4 4 6 6 5 5 5 5 5 6 4 2 0 2 5 6 4 4 2 2 4 4 3 0 1 1 1 3 5 5 5 4 4 6 8 8 9 10 10 11 13 14 12 9 9 8 8 8 10 14 10 9 9 12 12 13 13 13 13 13 13 13 13 13 15 15 13 13 13
9 9 9 8 7 7 6 5 4 5 5 5 5 4 3 4 4 4 6 6 5 6 6 5 4 4 3 3 2 1 3 5 4 4 3 2 3 1 2 2 1 2 3 4 2 2 2 3 5 6 5 6 7 7 12 16 16 16 16 17 15 15 14 11 13 15 9 8 10 11 12 12 12 12 13 13 13 13 13 13 12 14 13 13 13
9 10 9 9 7 6 6 5 4 5 5 5 5 5 4 4 4 4 6 5 5 6 5 4 4 4 3 2 2 2 1 3 4 4 4 4 1 1 3 2 3 4 5 7 6 7 7 6 2 5 7 10 11 13 15 16 17 17 17 16 15 15 16 16 15 10 9 10 10 11 11 11 11 11 12 12 12 12 12 12 12 12 12 13 12
Wind_Direction
79 74 66 68 65 71 71 67 69 60 48 55 59 50 47 52 56 46 52 92 140 206 228 152 137 84 334 309 297 283 269 291 257 231 236 249 255 257 272 272 256 257 255 252 251 248 235 232 229 237 224 221 227 242 242 242 227 218 237 227 238 251 265 186 205 157 146 283 318 269 277 228 223 207 199 199 215 222 211 198 204 204 209 206 203
85 74 68 62 59 70 70 58 55 54 29 48 51 49 50 47 49 46 40 43 42 49 50 102 157 148 161 280 303 301 287 290 291 251 243 269 270 261 279 296 288 274 279 284 271 244 253 242 241 244 229 231 234 244 252 250 246 233 223 265 231 222 237 193 204 123 256 219 235 293 302 273 227 219 227 213 206 213 209 211 204 204 205 206 202
81 82 74 64 64 67 74 63 55 55 37 52 36 50 46 45 44 47 44 40 31 25 31 20 346 50 153 184 262 294 296 287 288 289 115 202 268 305 309 298 305 314 311 294 273 259 254 261 254 249 242 232 242 249 250 253 241 235 216 223 260 249 264 126 223 223 200 81 23 17 280 299 297 248 234 228 213 204 203 212 210 209 208 202 197
83 81 78 59 67 57 71 64 56 59 42 48 37 45 47 46 46 46 45 41 34 23 25 10 15 53 54 138 170 257 290 311 322 321 336 335 306 229 244 253 315 316 294 282 284 288 265 247 246 242 243 231 233 249 251 254 248 248 228 226 222 241 253 240 205 226 157 117 238 227 246 160 296 251 234 234 208 209 200 215 208 210 210 202 193
98 86 86 71 66 52 65 72 64 52 46 44 38 42 43 43 47 47 44 40 33 28 25 8 21 36 25 48 103 150 346 338 332 325 325 305 304 310 306 353 36 298 272 277 283 273 263 255 250 249 247 240 232 252 248 247 243 236 233 225 199 258 268 263 275 248 234 200 184 70 315 286 237 292 210 267 190 210 215 208 209 209 208 202 199
98 95 94 85 81 73 63 68 63 50 48 36 38 47 36 42 43 38 44 36 30 29 24 35 33 42 45 38 32 38 58 359 344 324 317 308 295 318 317 329 342 327 315 334 318 281 281 277 272 264 260 299 317 283 291 289 273 265 252 270 270 218 248 250 244 254 218 219 230 222 185 193 203 243 137 265 308 225 219 203 204 210 207 202 203
92 94 92 90 86 82 70 67 70 67 49 27 33 49 30 44 45 31 36 32 30 31 32 45 43 40 50 59 49 42 31 17 30 34 283 293 298 302 302 318 327 322 313 330 342 324 304 286 276 271 270 260 303 326 312 278 263 260 257 218 224 235 227 244 241 237 235 238 234 242 256 222 161 137 222 323 288 287 220 212 213 207 204 201 203
106 98 99 100 91 79 71 57 60 54 38 30 36 38 42 37 49 57 59 53 40 37 42 46 54 46 49 52 47 36 25 16 355 24 45 329 303 297 307 311 305 296 297 301 301 288 279 275 271 267 276 289 266 249 242 249 254 241 256 255 233 222 213 228 244 234 221 229 201 241 247 245 203 243 249 217 207 216 264 258 255 213 206 211 206
115 115 108 99 92 86 77 65 50 45 40 52 50 48 45 36 32 36 37 34 33 43 51 47 54 55 56 58 55 37 24 17 1 16 24 39 78 324 310 300 310 306 282 305 324 322 315 313 310 298 268 251 250 248 252 277 276 271 255 246 249 247 229 229 231 237 220 233 218 227 227 235 237 230 244 277 219 218 246 214 224 202 216 224 222
105 105 105 102 102 97 91 82 69 45 26 25 32 33 31 28 32 31 24 29 23 43 52 50 50 52 54 47 45 33 27 20 30 29 26 26 34 32 29 353 304 302 313 321 322 313 314 312 306 297 286 253 255 261 270 269 266 261 264 263 254 251 253 238 233 241 232 237 224 221 209 244 256 252 251 248 262 217 225 218 207 198 214 226 213
103 100 97 98 98 105 104 99 91 62 43 37 39 39 48 51 47 45 26 24 26 31 40 40 35 41 50 49 42 32 21 22 25 26 18 21 23 20 13 5 360 355 344 327 326 315 309 308 302 295 284 266 259 258 260 261 265 266 264 258 254 254 251 249 249 246 238 230 225 219 211 199 219 224 226 216 219 221 228 241 231 211 214 226 217
102 97 103 104 106 105 103 89 72 51 38 40 39 32 30 30 47 47 27 27 25 22 37 38 39 34 35 31 40 39 32 29 25 17 9 14 14 13 6 14 11 1 357 350 345 345 337 324 313 302 291 274 261 241 254 258 266 271 273 270 267 264 260 251 247 248 243 232 229 221 227 226 226 229 233 216 211 223 216 229 220 211 240 235 223
104 103 105 107 104 100 84 74 63 55 51 53 52 51 46 45 45 52 30 33 41 44 57 51 45 40 36 36 39 41 44 41 30 27 14 17 8 13 14 13 5 2 355 350 349 344 342 336 335 335 325 295 272 259 251 261 269 271 269 269 265 262 258 253 254 259 255 244 235 235 228 233 235 237 244 243 238 234 219 232 232 197 214 220 230
111 111 107 95 92 85 86 82 78 77 64 61 45 44 49 41 36 48 34 34 49 51 49 50 47 46 46 42 37 38 41 40 33 32 21 18 16 21 25 15 12 5 354 358 349 345 345 337 332 330 324 310 295 281 276 271 271 271 269 262 259 259 257 253 252 256 257 252 233 242 226 226 231 222 229 228 226 224 223 228 230 227 218 239 242
119 111 108 102 97 98 91 88 93 93 70 54 49 53 58 53 45 44 38 28 47 51 55 55 50 46 45 44 36 35 36 31 24 19 19 21 15 19 22 22 19 9 5 357 357 356 353 352 350 346 341 330 316 299 274 269 269 275 275 274 277 276 273 263 256 253 258 256 239 231 243 239 238 231 226 230 218 218 218 220 214 226 236 229 235
109 116 118 121 124 115 105 112 114 74 73 74 71 74 72 59 59 54 55 55 56 60 59 60 53 48 43 41 41 45 45 40 30 19 14 14 23 23 22 21 17 11 7 2 0 360 355 354 352 348 356 359 351 340 323 297 281 269 268 268 267 263 262 265 264 260 258 257 253 241 231 236 235 235 231 236 228 219 219 217 212 218 220 233 212
115 112 120 119 108 101 103 97 67 61 65 65 57 49 47 31 35 42 51 58 61 59 57 52 49 47 38 42 43 46 46 43 36 26 16 15 24 29 23 15 13 13 9 6 2 359 356 355 350 8 16 359 1 2 354 344 323 289 272 272 276 272 267 267 266 259 256 251 249 246 243 245 240 235 231 231 231 228 223 221 205 218 215 223 218
105 99 104 116 104 86 73 75 85 87 85 74 65 59 56 52 49 58 59 68 65 64 55 48 48 47 45 43 42 42 42 40 35 29 20 23 33 31 23 19 16 12 11 6 2 1 359 358 3 23 4 12 9 6 357 358 358 350 336 321 301 289 279 269 264 264 264 256 253 252 248 246 238 233 233 230 227 226 222 219 210 206 213 224 224
110 95 88 87 86 89 93 93 88 79 73 76 69 60 54 46 52 62 69 71 72 65 59 51 51 55 52 50 46 43 44 46 40 33 28 31 39 35 26 23 17 12 11 8 8 7 6 1 17 14 360 4 360 3 2 1 356 349 347 336 335 330 315 293 274 262 261 256 252 252 252 251 246 242 237 234 231 227 225 221 219 211 210 217 221
100 90 90 91 88 89 90 89 82 76 71 62 62 56 50 47 52 60 67 69 66 62 60 60 56 59 56 51 45 48 53 56 47 41 36 37 43 39 28 25 21 15 15 16 19 17 10 14 19 16 6 6 3 2 357 349 350 351 346 337 330 333 333 324 310 283 267 259 256 258 256 253 245 240 239 235 232 228 223 221 218 214 211 205 204
103 106 101 90 87 87 84 84 81 71 68 65 58 59 50 53 55 57 70 68 71 69 66 63 60 55 56 50 46 47 55 59 57 48 45 46 51 44 37 31 25 24 17 19 22 20 15 13 15 22 12 12 5 0 358 349 347 339 335 328 327 332 328 325 320 314 297 269 264 265 263 256 247 240 240 239 236 234 228 221 218 214 213 205 201
112 111 103 93 85 84 84 77 69 66 60 59 51 51 48 50 55 66 66 69 80 72 71 63 56 53 49 44 38 38 48 58 62 48 46 47 53 49 40 35 35 28 26 24 21 18 16 13 15 20 18 9 3 1 356 356 351 343 334 332 328 325 322 314 315 313 318 305 283 276 272 262 249 248 247 246 244 240 233 225 220 211 211 210 201
99 96 89 83 76 77 84 82 77 73 63 58 49 52 51 50 56 63 72 68 79 81 71 66 63 61 60 54 50 43 38 40 43 41 42 39 44 51 42 40 37 33 31 32 22 21 17 16 17 20 14 8 6 1 358 353 346 339 333 329 323 319 313 310 311 310 310 312 304 289 277 269 256 251 249 246 241 238 229 224 227 221 215 210 202
95 87 87 81 81 76 72 71 69 62 64 59 55 52 49 52 60 68 71 72 73 77 77 75 73 70 67 64 58 51 47 43 40 33 33 30 29 39 45 45 41 35 35 28 27 24 22 18 21 19 16 8 4 1 352 350 344 338 333 327 323 318 312 305 303 302 304 307 303 300 292 277 265 258 258 256 249 242 234 227 224 219 214 214 205
92 89 91 85 79 76 79 83 81 78 68 64 58 56 55 52 55 65 70 73 80 81 83 76 76 75 70 70 67 62 59 51 46 39 37 34 30 27 27 36 39 38 33 30 28 26 23 20 22 22 14 10 6 359 356 350 343 338 332 327 321 317 312 310 305 302 302 300 299 297 298 287 273 266 266 267 265 261 248 232 221 213 210 204 202
102 101 90 91 98 92 87 86 84 77 76 66 64 61 58 55 50 54 60 60 61 69 73 74 72 75 72 69 67 61 58 56 52 45 41 39 38 33 29 28 27 31 31 31 32 27 24 19 20 21 14 10 1 358 355 351 345 341 338 332 325 317 312 310 309 306 304 302 297 298 301 295 280 267 261 266 268 265 267 242 212 210 206 204 205
112 111 109 96 82 89 99 96 92 87 78 74 73 66 61 60 55 57 61 60 54 55 55 63 64 70 70 66 61 58 53 51 47 44 42 45 43 38 34 34 32 32 29 28 27 30 23 20 18 17 15 8 1 357 355 352 347 345 342 336 330 321 313 310 304 302 300 298 296 296 300 300 290 275 267 263 268 264 249 249 245 231 213 202 204
110 105 104 105 103 100 107 104 90 78 72 69 65 71 73 70 70 65 63 62 58 60 58 60 64 64 63 59 56 53 50 45 42 35 36 41 46 46 43 36 34 33 31 26 23 22 21 16 13 11 11 7 1 359 357 354 345 341 342 337 332 325 321 321 316 304 294 292 293 298 302 306 301 290 277 264 254 266 260 251 244 245 261 245 209
116 113 115 114 107 119 110 90 88 82 80 72 69 68 74 73 74 75 69 65 63 62 60 58 57 56 50 48 43 42 39 38 35 34 32 31 38 46 48 45 37 36 32 26 22 20 18 17 14 13 9 6 6 1 1 353 347 341 336 329 339 334 327 324 327 328 312 298 312 322 319 315 312 305 294 274 253 248 255 256 249 241 248 232 221
125 124 122 118 121 119 117 107 92 92 84 79 75 78 82 86 79 74 72 63 65 60 59 56 54 53 51 47 45 42 38 30 26 25 23 23 26 31 38 37 37 35 33 28 23 20 20 20 15 11 11 9 7 5 357 353 353 350 340 330 340 341 338 337 339 336 338 344 343 339 335 337 330 315 298 285 266 252 247 247 247 243 232 229 221
119 119 117 112 116 116 111 111 112 99 91 89 93 91 88 82 80 77 74 69 70 66 61 60 62 61 59 51 47 44 41 41 37 29 22 20 19 19 26 30 31 32 32 30 24 23 23 20 18 13 12 11 9 5 356 355 353 353 350 333 345 343 342 342 345 346 341 342 340 338 337 338 338 340 335 316 276 257 252 243 243 239 226 222 217
124 121 114 116 116 115 121 124 118 107 96 95 93 92 87 84 80 82 80 73 69 68 68 67 69 67 63 57 50 47 44 40 37 33 31 29 28 24 22 25 29 29 25 23 24 22 20 19 17 15 13 10 8 3 358 358 356 354 353 346 346 347 348 349 345 344 338 342 339 339 339 336 338 338 334 338 331 308 263 247 247 244 243 235 226
127 124 122 123 124 128 129 123 116 107 104 106 105 96 94 93 88 90 84 74 70 71 73 72 69 70 67 61 54 49 46 43 38 36 34 35 35 31 25 24 31 26 20 21 17 14 17 13 15 13 9 5 4 3 1 0 359 357 352 349 352 352 353 348 345 342 340 343 340 341 341 337 340 341 342 342 335 329 321 282 242 243 242 238 238
122 128 129 128 121 117 118 123 121 115 107 109 103 106 103 96 95 91 87 83 84 75 80 80 75 73 71 64 56 53 49 44 41 39 38 36 35 33 27 17 22 25 22 16 10 14 11 12 11 10 5 -0 2 3 1 0 359 358 354 352 353 354 349 351 349 345 340 339 336 340 342 338 335 337 337 342 333 325 317 313 284 237 234 240 235
130 131 133 129 125 119 112 104 108 112 106 95 84 88 84 78 88 92 92 94 89 88 77 75 74 73 72 65 61 57 55 50 46 44 43 42 37 32 27 19 17 11 15 10 4 5 7 10 7 7 7 3 2 2 2 0 360 358 353 355 358 355 348 350 347 344 344 344 338 336 342 335 332 331 334 339 332 324 316 305 297 269 230 234 232
140 138 141 135 129 125 121 122 120 99 92 93 96 89 83 81 82 96 101 103 103 91 81 74 75 79 78 76 73 67 61 57 53 49 49 43 39 32 27 11 12 5 360 2 4 3 2 1 2 6 8 4 358 -0 1 1 0 359 353 -0 357 353 345 342 345 349 349 347 341 339 344 342 337 330 334 336 334 327 311 304 296 279 259 235 232
144 141 144 143 137 126 123 111 102 101 97 98 96 87 88 84 87 105 113 117 104 94 87 83 90 95 95 89 85 80 70 63 56 56 48 40 35 20 15 6 12 6 4 4 4 3 359 357 358 4 8 3 358 358 1 -0 0 0 358 359 356 353 348 342 345 344 347 347 345 347 349 344 339 335 336 335 336 336 323 321 308 290 267 246 245
142 133 129 128 123 112 105 103 102 101 114 109 88 83 84 84 87 100 110 108 101 105 108 100 96 97 102 100 92 84 78 67 62 58 48 38 29 22 21 8 17 3 4 354 351 0 3 4 3 4 6 5 356 353 359 360 1 2 1 356 352 354 349 346 344 347 348 347 347 349 351 349 341 338 336 336 340 341 334 327 319 305 291 262 251
141 138 133 129 126 121 114 102 103 105 108 102 94 86 83 83 86 87 88 100 122 134 126 113 107 105 107 111 99 85 78 70 64 53 49 39 29 33 13 15 16 11 6 353 355 359 0 5 4 3 5 6 355 352 356 359 0 3 5 357 354 353 352 351 348 346 347 343 343 346 348 347 346 339 336 340 343 346 334 325 321 313 301 284 266
141 132 127 122 117 104 98 101 108 123 118 98 91 87 90 92 90 90 89 113 138 153 158 130 100 94 109 110 106 94 80 75 65 51 42 34 20 26 17 19 13 12 4 2 1 3 3 0 356 360 359 360 356 352 352 356 360 0 3 3 354 357 354 350 350 350 347 345 344 343 343 345 345 341 341 342 346 348 345 330 334 328 312 296 322
136 135 128 119 115 113 118 123 129 126 110 104 91 87 83 86 84 79 92 115 148 150 133 116 99 96 102 111 110 106 92 73 70 68 56 43 37 39 22 19 15 5 10 11 11 8 5 358 355 354 355 355 355 354 346 355 358 359 360 5 358 358 350 347 346 349 348 344 344 344 341 344 344 343 343 344 348 351 351 346 335 321 296 277 287
128 130 121 116 114 112 109 106 113 114 117 110 102 96 101 94 85 90 117 135 124 129 122 103 99 104 106 113 121 112 98 89 72 64 58 46 32 42 33 21 10 10 17 17 12 15 10 3 357 358 -0 354 348 348 352 352 357 357 357 0 6 356 351 345 349 351 348 347 347 344 342 343 343 345 346 347 351 353 356 0 342 338 334 317 250
125 122 125 123 120 120 118 121 116 116 120 115 105 108 109 107 104 122 110 92 100 109 124 128 118 105 108 115 124 125 115 98 80 70 70 54 34 39 28 18 18 12 20 23 17 14 13 10 8 5 -0 357 352 346 351 355 353 353 353 356 359 358 354 357 357 355 351 345 343 342 342 345 346 348 349 350 353 359 2 360 359 2 359 355 352
133 131 132 124 124 125 124 122 118 120 122 123 116 130 132 117 126 136 91 85 86 98 95 79 80 115 113 118 119 112 107 102 95 82 71 65 41 36 36 22 15 20 22 26 18 12 14 14 10 4 4 358 354 351 347 354 351 348 347 352 356 358 359 357 359 360 351 347 347 347 344 343 350 352 352 353 357 4 2 0 8 10 13 8 11
134 133 129 126 131 133 129 126 131 128 123 117 119 115 105 100 249 140 107 106 97 80 75 86 97 117 129 123 94 91 96 101 99 93 86 72 49 38 47 12 22 23 27 31 16 16 18 11 9 9 0 357 354 349 349 350 351 345 343 347 352 356 359 356 360 356 358 352 350 348 347 349 351 356 354 357 1 3 3 6 10 14 20 21 11
131 127 125 126 125 125 128 137 151 148 117 106 111 108 102 139 142 88 71 68 64 63 56 61 76 87 136 127 92 78 72 87 92 89 97 89 89 58 61 29 32 28 27 30 22 20 18 13 15 8 3 354 351 354 356 353 351 342 338 343 348 354 358 355 355 353 352 353 354 353 353 353 356 1 2 4 5 4 6 11 11 14 23 25 21
136 133 123 119 119 120 130 139 147 177 116 113 109 113 128 121 109 118 105 90 81 74 61 53 56 52 37 84 119 109 89 75 88 90 81 82 74 61 60 55 37 35 29 33 25 23 18 14 14 6 1 357 357 359 1 356 353 350 346 341 348 350 355 354 351 352 354 353 355 359 357 356 1 4 10 8 9 6 11 12 12 13 16 20 26
135 132 124 122 121 127 131 132 145 164 140 134 130 135 137 128 128 115 106 91 79 76 74 58 52 64 62 39 155 132 114 88 78 99 108 88 57 73 77 67 60 37 45 32 28 20 13 6 1 360 2 4 4 2 1 357 354 358 357 360 356 355 356 344 345 349 347 352 356 359 3 5 5 11 11 12 11 10 13 14 14 13 15 16 18
127 128 127 131 132 129 133 130 138 144 139 131 121 117 111 108 122 127 109 95 90 78 72 55 41 54 43 15 322 168 121 120 105 81 71 147 154 146 133 155 268 217 85 62 37 17 6 350 346 359 6 5 5 5 351 348 3 4 11 10 7 4 352 345 344 343 349 353 7 14 11 8 10 11 12 11 9 10 12 14 17 15 13 15 20
133 130 129 129 131 135 136 135 139 125 124 124 125 121 109 108 107 102 101 102 96 74 65 49 50 59 51 61 29 19 130 135 130 130 109 52 0 164 246 174 177 279 286 295 327 13 327 330 357 1 10 15 355 334 348 4 5 8 9 15 16 9 1 349 347 345 352 11 16 18 15 12 9 11 12 12 9 10 9 11 15 17 18 18 17
131 125 129 132 141 139 135 133 142 122 119 127 132 135 120 116 116 122 106 104 94 82 70 55 56 51 46 45 54 55 63 128 152 139 124 125 100 344 4 348 303 293 307 314 327 325 337 352 349 16 349 354 353 0 8 7 8 9 10 9 9 7 1 354 351 355 5 19 14 19 14 11 11 12 14 13 11 10 10 10 11 12 18 17 18